Youngstown, OH

12:05 PM EST on January 23, 2018 (GMT -0500)
Youngstown-Warren Regional

Weather History for KYNG - June, 2013

Change the Weather History Date:

Saturday, June 15, 2013

  Actual Average Record
Temperature  
Mean Temperature 62 °F 66 °F  
Max Temperature 77 °F 78 °F 93 °F (1994)
Min Temperature 46 °F 56 °F 40 °F (1958)
Degree Days  
Heating Degree Days 3 2  
Month to date heating degree days 51 49  
Since 1 June heating degree days 51 49  
Since 1 July heating degree days 6151 6329  
Cooling Degree Days 0 4  
Month to date cooling degree days 25 39  
Year to date cooling degree days 113 78  
Since 1 June cooling degree days 25 39  
Growing Degree Days 12 (Base 50)    
Moisture  
Dew Point 50 °F    
Average Humidity 67    
Maximum Humidity 100    
Minimum Humidity 33    
Precipitation  
Precipitation T in 0.13 in 1.35 in (1954)
Month to date precipitation 2.59 1.92  
Year to date precipitation 14.36 16.71  
Snow  
Snow 0.00 in 0.00 in - ()
Month to date snowfall 0.0 0.0  
Since 1 June snowfall 0.0 0.0  
Since 1 July snowfall 80.9 62.7  
Snow Depth 0.00 in    
Sea Level Pressure  
Sea Level Pressure 30.07 in    
Wind  
Wind Speed 4 mph (WSW)    
Max Wind Speed 16 mph    
Max Gust Speed 21 mph    
Visibility 9 miles    
Events Fog , Rain    
T = Trace of Precipitation, MM = Missing Value Source: NWS Daily Summary

Daily Weather History Graph

Daily Weather History Graph

Search for Another Location

Airport or City:

Trip Planner

Search our weather history database for the weather conditions in past years. The results will help you decide how hot, cold, wet, or windy it might be!

Date:

Astronomy

Jun. 15, 2013 Rise Set
Actual Time 5:49 AM EDT 8:57 PM EDT
Civil Twilight 5:15 AM EDT 9:31 PM EDT
Nautical Twilight 4:32 AM EDT 10:14 PM EDT
Astronomical Twilight 3:40 AM EDT 11:06 PM EDT
Moon 12:26 PM EDT (6/15) 12:29 AM EDT (6/15)
Length of Visible Light 16h 16m
Length of Day
15h 08m
Waxing Crescent, 39% of the Moon is Illuminated
Jun 15
Waxing Crescent
Jun 16
First Quarter
Jun 23
Full
Jun 30
Last Quarter
Jul 8
New

Hourly Weather History & Observations

Time (EDT) Temp. Dew Point Humidity Pressure Visibility Wind Dir Wind Speed Gust Speed Precip Events Conditions
12:51 AM 51.1 °F 50.0 °F 96% 30.07 in 10.0 mi Calm Calm - N/A   Clear
1:51 AM 50.0 °F 48.9 °F 96% 30.06 in 8.0 mi Calm Calm - N/A   Clear
2:51 AM 48.0 °F 46.9 °F 96% 30.06 in 8.0 mi Calm Calm - N/A   Clear
3:51 AM 48.9 °F 48.0 °F 97% 30.06 in 8.0 mi Calm Calm - N/A Fog Shallow Fog
4:51 AM 46.9 °F 46.0 °F 97% 30.08 in 9.0 mi SW 3.5 mph - N/A Fog Shallow Fog
5:51 AM 46.9 °F 46.0 °F 97% 30.10 in 7.0 mi WSW 3.5 mph - N/A Fog Shallow Fog
6:51 AM 51.1 °F 48.9 °F 92% 30.11 in 8.0 mi Calm Calm - N/A   Mostly Cloudy
7:51 AM 55.9 °F 53.1 °F 90% 30.12 in 9.0 mi Calm Calm - N/A   Partly Cloudy
8:51 AM 61.0 °F 50.0 °F 67% 30.14 in 10.0 mi West 4.6 mph - N/A   Scattered Clouds
9:51 AM 66.0 °F 45.0 °F 47% 30.14 in 10.0 mi WNW 4.6 mph - N/A   Scattered Clouds
10:51 AM 69.1 °F 48.0 °F 47% 30.12 in 10.0 mi West 3.5 mph - N/A   Mostly Cloudy
11:51 AM 72.0 °F 48.0 °F 43% 30.11 in 10.0 mi WNW 6.9 mph - N/A   Mostly Cloudy
12:51 PM 72.0 °F 48.0 °F 43% 30.10 in 10.0 mi West 5.8 mph - N/A   Mostly Cloudy
1:51 PM 73.9 °F 46.0 °F 37% 30.08 in 10.0 mi WSW 6.9 mph - N/A   Mostly Cloudy
2:51 PM 75.0 °F 45.0 °F 34% 30.06 in 10.0 mi Variable 3.5 mph - N/A   Mostly Cloudy
3:51 PM 75.9 °F 48.9 °F 38% 30.05 in 10.0 mi Variable 3.5 mph - N/A   Mostly Cloudy
4:51 PM 75.9 °F 48.0 °F 37% 30.04 in 10.0 mi SW 8.1 mph - N/A   Mostly Cloudy
5:51 PM 73.9 °F 48.0 °F 40% 30.04 in 10.0 mi SW 9.2 mph - N/A   Mostly Cloudy
6:51 PM 75.0 °F 50.0 °F 41% 30.03 in 10.0 mi SW 6.9 mph - N/A   Mostly Cloudy
7:51 PM 71.1 °F 52.0 °F 51% 30.02 in 10.0 mi SW 4.6 mph - N/A   Mostly Cloudy
8:51 PM 69.1 °F 53.1 °F 57% 30.00 in 10.0 mi SSW 3.5 mph - 0.00 in Rain Light Rain
9:51 PM 66.0 °F 57.0 °F 73% 30.00 in 10.0 mi West 5.8 mph - 0.00 in Rain Light Rain
10:51 PM 64.0 °F 57.0 °F 78% 30.01 in 10.0 mi Calm Calm - 0.00 in   Overcast
11:51 PM 62.1 °F 57.9 °F 86% 30.01 in 10.0 mi Calm Calm - N/A   Overcast